Flag for Madagascar Weather past 2 weeks in Antsirabe, Madagascar

Now
63 °F

Scattered clouds.


Feels Like: 63 °F
Forecast: 51 / 76 °F
Wind: 1 mph from North

Location: Antananarivo / Ivato


UV Index: 5 (Moderate)

Visibility: N/A


Pressure: 30.24 "Hg

Humidity: 100%

Dew point: 63 °F

Location of AntsirabeLocation

Historic Weather in Antsirabe

°F

Antsirabe temperature yesterday

Maximum temperature yesterday: 79 °F (at 12:00 PM)
Minimum temperature yesterday: 64 °F (at 12:00 AM)
Average temperature yesterday: 70 °F

Past Weeks' High & Low Weather Summary

 TemperatureHumidityPressure
High82 °F (Apr 6, 2:30 PM)100% (Apr 5, 6:00 AM)30.36 "Hg (Apr 5, 6:00 AM)
Low55 °F (Apr 10, 10:30 PM)54% (Apr 8, 1:00 PM)29.98 "Hg (Apr 6, 2:30 PM)
Average67 °F88%30.19 "Hg
* Reported Apr 5 6:00 AM — Apr 20 6:00 AM, Antsirabe, Weather by CustomWeather, © 2014

Note: Actual official high and low records may vary slightly from our data, if they occured in-between our weather recording intervals... More about our weather records

Advertising

Historic Weather Conditions — Data for Previous 24 hours

 ConditionsComfort  
Time TempWeatherWind HumidityBarometerVisibility
6:00 AM
Apr 20
61 °FPassing clouds.5 mph100%30.24 "HgN/A
5:30 AM61 °FPassing clouds.6 mph100%30.24 "HgN/A
5:00 AM61 °FPassing clouds.5 mph100%30.24 "HgN/A
4:30 AM61 °FPassing clouds.5 mph100%30.21 "HgN/A
4:00 AM63 °FPassing clouds.5 mph100%30.21 "HgN/A
3:30 AM63 °FPassing clouds.5 mph100%30.21 "HgN/A
3:00 AM63 °FPassing clouds.6 mph100%30.21 "HgN/A
2:30 AM64 °FPassing clouds.3 mph100%30.21 "HgN/A
2:00 AM64 °FPartly cloudy.5 mph100%30.24 "HgN/A
1:30 AM63 °FPartly cloudy.5 mph100%30.24 "HgN/A
1:00 AM63 °FPassing clouds.6 mph100%30.27 "HgN/A
12:00 AM64 °FPassing clouds.8 mph100%30.27 "HgN/A
11:30 PM
Apr 19
64 °FPassing clouds.8 mph100%30.27 "HgN/A
11:00 PM64 °FPassing clouds.5 mph100%30.27 "HgN/A
10:30 PM64 °FPassing clouds.5 mph100%30.27 "HgN/A
10:00 PM64 °FPassing clouds.3 mph100%30.27 "HgN/A
9:30 PM64 °FPassing clouds.2 mph100%30.27 "HgN/A
9:00 PM66 °FPassing clouds.5 mph100%30.27 "HgN/A
8:30 PM66 °FPassing clouds.5 mph100%30.27 "HgN/A
8:00 PM68 °FPassing clouds.6 mph94%30.27 "HgN/A
7:30 PM68 °FPassing clouds.7 mph94%30.27 "HgN/A
7:00 PM70 °FPartly cloudy.7 mph88%30.27 "HgN/A
6:30 PM70 °FPartly cloudy.8 mph88%30.24 "HgN/A
6:00 PM70 °FPartly cloudy.10 mph94%30.24 "HgN/A
5:30 PM73 °FBroken clouds.12 mph83%30.21 "HgN/A
5:00 PM73 °FBroken clouds.8 mph83%30.21 "HgN/A
4:30 PM75 °FScattered clouds.8 mph74%30.21 "HgN/A
4:00 PM75 °FScattered clouds.8 mph74%30.21 "HgN/A
3:30 PM77 °FScattered clouds.8 mph69%30.21 "HgN/A
3:00 PM77 °FBroken clouds.7 mph69%30.21 "HgN/A
2:30 PM79 °FScattered clouds.6 mph65%30.21 "HgN/A
2:00 PM79 °FScattered clouds.8 mph70%30.21 "HgN/A
1:30 PM79 °FScattered clouds.10 mph65%30.21 "HgN/A
1:00 PM79 °FScattered clouds.10 mph65%30.21 "HgN/A
12:30 PM77 °FBroken clouds.9 mph65%30.21 "HgN/A
12:00 PM79 °FBroken clouds.10 mph65%30.24 "HgN/A
11:30 AM75 °FBroken clouds.12 mph74%30.24 "HgN/A
11:00 AM75 °FBroken clouds.10 mph78%30.27 "HgN/A
10:30 AM75 °FBroken clouds.13 mph78%30.27 "HgN/A
10:00 AM75 °FBroken clouds.13 mph74%30.27 "HgN/A
9:30 AM72 °FBroken clouds.8 mph88%30.30 "HgN/A
9:00 AM70 °FBroken clouds.7 mph94%30.30 "HgN/A
8:30 AM68 °FBroken clouds.7 mph100%30.30 "HgN/A
8:00 AM66 °FBroken clouds.8 mph100%30.30 "HgN/A
7:30 AM66 °FBroken clouds.3 mph100%30.30 "HgN/A
7:00 AM64 °FBroken clouds.3 mph100%30.27 "HgN/A
Weather by CustomWeather, © 2014

See weather overview